GW7003 Weather Reports


time (UTC)temp
C
wind
direction
speed
KPH
gust
KPH
rain 1hr
cm
rain 24hr
cm
rain mn
cm
humidity
%
barometer
mb
20260507043142 6 154 0.0 0.0 0.00 0.05 0.05 97 1016.8
20260507042638 6 154 0.0 0.0 0.00 0.05 0.05 97 1017.0
20260507042134 6 154 0.0 0.0 0.00 0.05 0.05 97 1017.0
20260507041631 6 154 0.0 1.6 0.00 0.05 0.05 97 1016.9
20260507041127 6 154 1.6 1.6 0.00 0.05 0.05 97 1016.7
20260507040624 6 144 3.2 3.2 0.00 0.05 0.05 97 1016.8
20260507040120 6 144 0.0 0.0 0.00 0.05 0.05 97 1016.9
20260507035616 6 144 0.0 0.0 0.00 0.05 0.05 97 1017.0
20260507035113 6 144 0.0 0.0 0.00 0.05 0.05 97 1016.9
20260507034609 6 144 0.0 0.0 0.00 0.05 0.05 97 1016.9
20260507034107 6 143 0.0 1.6 0.00 0.05 0.05 96 1016.6
20260507033606 6 143 0.0 0.0 0.00 0.05 0.05 96 1016.7
20260507033102 6 143 0.0 0.0 0.00 0.05 0.05 96 1016.7
20260507032600 7 143 0.0 0.0 0.00 0.05 0.05 96 1016.5
20260507032055 7 143 0.0 0.0 0.00 0.05 0.05 96 1016.6
20260507031552 7 143 0.0 0.0 0.00 0.05 0.05 96 1016.2
20260507031049 7 144 0.0 0.0 0.00 0.05 0.05 96 1016.6
20260507030546 7 144 0.0 0.0 0.00 0.05 0.05 96 1016.4
20260507030044 7 144 0.0 0.0 0.00 0.05 0.05 96 1016.3
20260507025541 7 144 0.0 0.0 0.00 0.05 0.05 96 1016.4
20260507025038 7 144 0.0 0.0 0.00 0.05 0.05 96 1016.2
20260507024536 7 145 0.0 0.0 0.00 0.05 0.05 95 1016.3
20260507024032 7 145 0.0 0.0 0.00 0.05 0.05 95 1016.0
20260507023528 7 144 0.0 0.0 0.00 0.05 0.05 95 1016.1
20260507023026 8 144 0.0 0.0 0.00 0.05 0.05 95 1016.2
20260507022522 8 145 0.0 0.0 0.00 0.05 0.05 95 1016.1
20260507022018 8 145 0.0 0.0 0.00 0.05 0.05 95 1016.0
20260507021514 8 145 1.6 1.6 0.00 0.05 0.05 94 1016.0
20260507021011 8 145 0.0 1.6 0.00 0.05 0.05 94 1016.1
20260507020508 8 145 0.0 0.0 0.00 0.05 0.05 94 1015.9
20260507020004 8 145 0.0 0.0 0.00 0.05 0.05 93 1015.9
20260507015503 8 145 0.0 0.0 0.00 0.05 0.05 93 1015.9
20260507015000 8 145 0.0 0.0 0.00 0.05 0.05 92 1015.8
20260507014456 9 145 0.0 0.0 0.00 0.05 0.05 91 1015.8
20260507013952 9 145 0.0 0.0 0.00 0.05 0.05 90 1015.7
20260507013449 10 145 0.0 0.0 0.00 0.05 0.05 90 1015.8
20260507012947 10 145 0.0 0.0 0.00 0.05 0.05 88 1015.8
20260507012443 10 145 0.0 0.0 0.00 0.05 0.05 87 1015.6
20260507011940 10 145 0.0 0.0 0.00 0.05 0.05 86 1015.6
20260507011437 11 145 0.0 0.0 0.00 0.05 0.05 84 1015.7
20260507010937 11 145 0.0 0.0 0.00 0.05 0.05 81 1015.6
20260507010433 11 145 0.0 0.0 0.00 0.05 0.05 80 1015.3
20260507005930 12 145 0.0 0.0 0.00 0.05 0.05 78 1015.6
20260507005427 12 144 0.0 0.0 0.00 0.05 0.05 78 1015.5
20260507004923 12 144 0.0 0.0 0.00 0.05 0.05 76 1015.5
20260507004420 13 162 0.0 0.0 0.00 0.05 0.05 74 1015.5
20260507003918 13 162 0.0 0.0 0.00 0.05 0.05 70 1015.6
20260507003412 13 162 0.0 0.0 0.00 0.05 0.05 68 1015.5
20260507002908 14 164 0.0 0.0 0.00 0.05 0.05 64 1015.6
20260507002404 14 114 0.0 1.6 0.00 0.05 0.05 61 1015.4
20260507001902 15 97 3.2 6.4 0.00 0.05 0.05 60 1015.4
20260507001358 15 169 1.6 3.2 0.00 0.05 0.05 59 1015.3
20260507000856 15 75 1.6 3.2 0.00 0.05 0.05 58 1015.2
20260507000350 15 104 1.6 3.2 0.00 0.05 0.05 59 1015.5
20260506235847 15 11 4.8 4.8 0.00 0.05 0.05 59 1015.2
20260506235344 15 116 0.0 3.2 0.00 0.05 0.05 61 1015.4
20260506234840 15 174 0.0 1.6 0.00 0.05 0.05 59 1015.4
20260506234338 15 100 1.6 1.6 0.00 0.05 0.05 61 1015.3
20260506233836 13 100 0.0 1.6 0.00 0.05 0.05 61 1015.4
20260506233331 13 57 1.6 9.7 0.00 0.05 0.05 61 1015.2
20260506232828 14 359 1.6 4.8 0.00 0.05 0.05 61 1015.3
20260506232324 14 78 4.8 6.4 0.00 0.05 0.05 60 1015.3
20260506231820 14 113 4.8 4.8 0.00 0.05 0.05 60 1015.0
20260506231319 14 33 3.2 3.2 0.00 0.05 0.05 59 1015.1
20260506230816 14 89 1.6 4.8 0.00 0.05 0.05 60 1015.1
20260506230312 14 127 4.8 9.7 0.00 0.05 0.05 59 1014.8
20260506225808 14 161 1.6 6.4 0.00 0.05 0.05 59 1014.7
20260506225306 15 20 3.2 4.8 0.00 0.05 0.05 57 1014.9
20260506224803 15 113 1.6 6.4 0.00 0.05 0.05 58 1014.9
20260506224300 15 36 6.4 9.7 0.00 0.05 0.05 57 1014.3
20260506223756 15 92 8.0 16.1 0.00 0.05 0.05 58 1014.2
20260506223251 14 336 3.2 4.8 0.00 0.05 0.05 59 1014.1
20260506222748 14 30 4.8 11.3 0.00 0.05 0.05 57 1013.8
20260506222244 14 29 4.8 9.7 0.00 0.05 0.05 58 1014.1
20260506221742 14 29 6.4 14.5 0.00 0.05 0.05 56 1013.6
20260506221240 14 69 4.8 14.5 0.00 0.05 0.05 56 1013.8
20260506220737 14 31 6.4 14.5 0.00 0.05 0.05 57 1013.5
20260506220232 14 38 9.7 16.1 0.00 0.05 0.05 57 1013.5
20260506215729 15 177 3.2 9.7 0.00 0.05 0.05 56 1013.8
20260506215224 13 94 3.2 9.7 0.00 0.05 0.05 58 1014.1
20260506214721 13 70 4.8 14.5 0.00 0.05 0.05 59 1014.0
20260506214218 13 31 3.2 9.7 0.00 0.05 0.05 59 1014.0
20260506213716 13 59 3.2 11.3 0.00 0.05 0.05 59 1013.9
20260506213214 13 19 8.0 9.7 0.00 0.05 0.05 59 1014.0
20260506212711 13 76 3.2 6.4 0.00 0.05 0.05 60 1014.3
20260506212206 14 27 4.8 12.9 0.00 0.05 0.05 60 1014.1
20260506211702 14 342 11.3 14.5 0.00 0.05 0.05 57 1014.3
20260506211158 14 10 4.8 11.3 0.00 0.05 0.05 56 1014.0
20260506210655 14 49 8.0 14.5 0.00 0.05 0.05 55 1014.2
20260506210152 15 83 1.6 6.4 0.00 0.05 0.05 54 1014.3
20260506205650 14 25 4.8 9.7 0.00 0.05 0.05 59 1014.1
20260506205150 14 118 3.2 9.7 0.00 0.05 0.05 55 1014.4
20260506204648 14 138 3.2 6.4 0.00 0.05 0.05 56 1014.7
20260506204144 15 107 4.8 6.4 0.00 0.05 0.05 57 1014.5
20260506203643 15 103 6.4 14.5 0.00 0.05 0.05 55 1014.7
20260506203139 15 338 8.0 14.5 0.00 0.05 0.05 56 1015.0
20260506202638 15 30 4.8 9.7 0.00 0.05 0.05 56 1015.0
20260506202133 15 193 1.6 12.9 0.00 0.05 0.05 52 1015.0
20260506201630 15 112 9.7 12.9 0.00 0.05 0.05 52 1015.3
20260506201127 15 21 4.8 11.3 0.00 0.05 0.05 54 1015.4
20260506200623 15 67 4.8 11.3 0.00 0.05 0.05 53 1015.5
20260506200120 15 106 3.2 6.4 0.00 0.05 0.05 57 1015.5
20260506195617 15 62 4.8 9.7 0.00 0.05 0.05 60 1015.5
20260506195113 13 107 3.2 3.2 0.00 0.05 0.05 64 1015.7
20260506194611 13 181 6.4 11.3 0.00 0.05 0.05 59 1015.9
20260506194107 14 131 6.4 12.9 0.00 0.05 0.05 60 1016.0
20260506193605 14 159 1.6 6.4 0.00 0.05 0.05 58 1015.9
20260506193102 15 74 3.2 6.4 0.00 0.05 0.05 56 1015.5
20260506192559 13 77 1.6 6.4 0.00 0.05 0.05 63 1015.8
20260506192054 13 183 1.6 11.3 0.00 0.05 0.05 62 1015.8
20260506191551 13 189 4.8 11.3 0.00 0.05 0.05 60 1016.0
20260506191047 13 0 3.2 6.4 0.00 0.05 0.05 65 1016.0
20260506190545 12 132 9.7 12.9 0.00 0.05 0.05 65 1016.1
20260506190042 12 124 6.4 6.4 0.00 0.05 0.05 65 1016.3
20260506185539 12 112 3.2 3.2 0.00 0.05 0.05 64 1016.3
20260506185035 12 31 4.8 12.9 0.00 0.05 0.05 65 1016.0
20260506184532 13 48 1.6 6.4 0.00 0.05 0.05 64 1016.1
20260506184030 13 9 8.0 11.3 0.00 0.05 0.05 64 1016.2
20260506183525 12 152 0.0 3.2 0.00 0.05 0.05 67 1015.9
20260506183023 12 12 9.7 16.1 0.00 0.05 0.05 64 1016.1
20260506182520 12 10 4.8 11.3 0.00 0.05 0.05 67 1016.0
20260506182017 12 124 6.4 9.7 0.00 0.05 0.05 65 1016.0
20260506181515 13 48 1.6 6.4 0.00 0.05 0.05 64 1015.8
20260506181011 13 3 6.4 14.5 0.00 0.05 0.05 63 1015.8
20260506180508 12 34 9.7 14.5 0.00 0.05 0.05 63 1016.0
20260506180005 12 39 4.8 11.3 0.00 0.05 0.05 65 1016.2
20260506175501 12 92 3.2 6.4 0.00 0.05 0.05 65 1016.2
20260506174957 12 71 4.8 9.7 0.00 0.05 0.05 66 1016.4
20260506174456 12 25 9.7 14.5 0.00 0.05 0.05 67 1016.8
20260506173952 12 12 9.7 14.5 0.00 0.05 0.05 65 1016.6
20260506173450 12 30 6.4 9.7 0.00 0.05 0.05 68 1016.6
20260506172946 12 93 1.6 3.2 0.00 0.05 0.05 68 1016.8
20260506172444 11 102 3.2 9.7 0.00 0.05 0.05 67 1016.9
20260506171940 11 104 3.2 4.8 0.00 0.05 0.05 69 1017.2
20260506171437 11 139 4.8 6.4 0.00 0.05 0.05 67 1017.0
20260506170935 11 95 3.2 3.2 0.00 0.05 0.05 69 1016.7
20260506170431 11 32 6.4 14.5 0.00 0.05 0.05 67 1016.7
20260506165930 11 58 3.2 9.7 0.00 0.05 0.05 67 1016.7
20260506165428 11 83 3.2 4.8 0.00 0.05 0.05 69 1016.3
20260506164924 11 165 6.4 14.5 0.00 0.05 0.05 69 1016.4
20260506164421 11 184 9.7 12.9 0.00 0.05 0.05 70 1016.2
20260506163919 12 86 6.4 14.5 0.00 0.05 0.05 66 1016.4
20260506163414 12 159 3.2 11.3 0.00 0.05 0.05 68 1016.4
20260506162909 11 143 1.6 9.7 0.00 0.05 0.05 68 1016.7
20260506162407 11 98 4.8 11.3 0.00 0.05 0.05 72 1016.4
20260506161904 11 85 6.4 12.9 0.00 0.05 0.05 71 1016.2
20260506161401 11 154 1.6 3.2 0.00 0.05 0.05 72 1016.2
20260506160859 10 87 6.4 11.3 0.00 0.05 0.05 72 1016.1
20260506160356 11 184 3.2 14.5 0.00 0.05 0.05 72 1015.9
20260506155854 11 85 6.4 11.3 0.00 0.05 0.05 72 1015.3
20260506155351 10 83 6.4 11.3 0.00 0.05 0.05 74 1015.6
20260506153508 10 35 9.7 14.5 0.00 0.05 0.05 73 1016.1
20260506153005 10 99 4.8 9.7 0.00 0.05 0.05 74 1015.9
20260506152501 10 55 9.7 14.5 0.00 0.05 0.05 74 1015.9
20260506152000 10 26 4.8 6.4 0.00 0.05 0.05 75 1016.1
20260506151457 10 95 8.0 9.7 0.00 0.05 0.05 73 1016.0
20260506150955 10 141 4.8 16.1 0.00 0.05 0.05 74 1016.1
20260506150450 10 29 3.2 4.8 0.00 0.05 0.05 72 1016.0
20260506145948 10 173 9.7 11.3 0.00 0.05 0.05 76 1015.9
20260506145443 10 132 4.8 9.7 0.00 0.05 0.05 76 1016.3
20260506144942 10 106 4.8 14.5 0.00 0.05 0.05 74 1015.9
20260506144438 9 43 6.4 12.9 0.00 0.05 0.05 77 1015.7
20260506143937 9 150 4.8 9.7 0.00 0.05 0.05 78 1016.2
20260506143433 9 85 8.0 11.3 0.00 0.05 0.05 78 1015.6
20260506142932 9 73 6.4 14.5 0.00 0.05 0.05 77 1015.7
20260506142429 9 121 3.2 4.8 0.00 0.05 0.05 78 1015.6
20260506141927 10 40 11.3 16.1 0.00 0.05 0.05 78 1015.6
20260506141425 10 64 3.2 6.4 0.00 0.05 0.05 78 1015.2
20260506140923 9 131 3.2 11.3 0.00 0.05 0.05 80 1015.4
20260506140419 9 98 4.8 9.7 0.00 0.05 0.05 80 1015.5
20260506135916 8 71 6.4 12.9 0.00 0.05 0.05 79 1015.8
20260506135414 8 0 3.2 6.4 0.00 0.05 0.05 79 1015.8
20260506134909 8 75 3.2 11.3 0.00 0.05 0.05 80 1015.9
20260506134406 8 100 1.6 1.6 0.00 0.05 0.05 81 1015.9
20260506133903 8 120 4.8 9.7 0.00 0.05 0.05 80 1015.8
20260506133359 8 13 3.2 14.5 0.00 0.05 0.05 82 1015.6
20260506132856 8 98 4.8 6.4 0.00 0.05 0.05 81 1015.9
20260506132353 8 147 3.2 4.8 0.00 0.05 0.05 81 1015.9
20260506131852 8 189 3.2 12.9 0.00 0.05 0.05 83 1015.7
20260506131347 8 22 4.8 4.8 0.00 0.05 0.05 84 1015.7
20260506130845 8 87 6.4 12.9 0.00 0.05 0.05 84 1015.7
20260506130341 7 45 1.6 11.3 0.00 0.05 0.05 85 1015.9
20260506125839 7 121 4.8 9.7 0.00 0.05 0.05 86 1015.4
20260506125337 7 50 4.8 9.7 0.00 0.05 0.05 86 1015.7
20260506124835 7 22 9.7 11.3 0.00 0.05 0.05 86 1015.5
20260506124332 7 35 3.2 4.8 0.00 0.05 0.05 86 1015.5
20260506123829 7 82 6.4 12.9 0.00 0.05 0.05 86 1015.0
20260506123328 7 134 4.8 4.8 0.00 0.05 0.05 86 1015.0
20260506122825 7 104 0.0 6.4 0.00 0.05 0.05 86 1015.2
20260506122321 7 133 3.2 9.7 0.00 0.05 0.05 86 1015.1
20260506121820 7 56 3.2 6.4 0.00 0.05 0.05 86 1015.2
20260506121316 7 100 1.6 4.8 0.00 0.05 0.05 86 1014.9
20260506120814 7 61 3.2 4.8 0.00 0.05 0.05 87 1015.1
20260506120311 7 21 6.4 9.7 0.00 0.05 0.05 86 1014.9
20260506115809 7 51 6.4 9.7 0.00 0.05 0.05 86 1014.7
20260506115307 7 108 0.0 3.2 0.00 0.05 0.05 85 1014.9
20260506114804 7 110 1.6 4.8 0.00 0.05 0.05 87 1014.3
20260506114302 7 117 1.6 4.8 0.00 0.05 0.05 86 1014.3
20260506113800 7 142 1.6 3.2 0.00 0.05 0.05 89 1014.0
20260506113257 7 78 1.6 1.6 0.00 0.05 0.05 86 1013.9
20260506112754 7 99 4.8 6.4 0.00 0.05 0.05 86 1013.9
20260506112251 7 109 3.2 4.8 0.00 0.05 0.05 86 1014.0
20260506111748 7 124 0.0 1.6 0.00 0.05 0.05 87 1013.9
20260506111247 7 96 1.6 6.4 0.00 0.05 0.05 86 1014.0
20260506110743 7 117 4.8 9.7 0.00 0.05 0.05 86 1013.8
20260506110241 7 119 0.0 3.2 0.00 0.05 0.05 86 1013.5
20260506105737 7 97 0.0 4.8 0.00 0.05 0.05 86 1013.3
20260506105234 7 135 0.0 1.6 0.00 0.05 0.05 86 1013.3
20260506104732 7 141 1.6 1.6 0.00 0.05 0.05 86 1013.2
20260506104229 7 152 0.0 1.6 0.00 0.05 0.05 87 1013.0
20260506103726 7 156 4.8 4.8 0.00 0.05 0.05 86 1012.7
20260506103224 7 150 1.6 3.2 0.00 0.05 0.05 86 1012.7
20260506102721 7 133 4.8 6.4 0.00 0.05 0.05 86 1012.6
20260506102220 7 118 1.6 1.6 0.00 0.05 0.05 87 1012.8
20260506101716 7 129 1.6 6.4 0.00 0.05 0.05 85 1012.3
20260506101212 7 110 3.2 4.8 0.00 0.05 0.05 86 1012.5
20260506100711 7 112 4.8 6.4 0.00 0.05 0.05 87 1012.5
20260506100208 7 137 0.0 1.6 0.00 0.05 0.05 87 1012.4
20260506095707 7 123 3.2 3.2 0.00 0.05 0.05 87 1012.0
20260506095203 7 86 3.2 9.7 0.00 0.05 0.05 88 1011.6
20260506094700 7 103 4.8 9.7 0.00 0.05 0.05 89 1011.7
20260506094158 7 172 4.8 4.8 0.00 0.05 0.05 88 1012.0
20260506093657 7 122 3.2 6.4 0.00 0.05 0.05 88 1012.0
20260506093153 7 125 3.2 6.4 0.00 0.05 0.05 88 1012.0
20260506092651 7 123 8.0 9.7 0.00 0.05 0.05 89 1012.0
20260506092148 7 103 4.8 6.4 0.00 0.05 0.05 89 1012.3
20260506091646 7 103 8.0 11.3 0.00 0.05 0.05 88 1012.2
20260506091143 7 141 4.8 12.9 0.00 0.05 0.05 87 1012.2
20260506090641 7 61 3.2 4.8 0.00 0.05 0.05 89 1012.0
20260506090137 7 149 6.4 6.4 0.00 0.05 0.05 90 1011.8
20260506085634 7 130 0.0 4.8 0.00 0.05 0.05 89 1011.9
20260506085130 7 15 3.2 6.4 0.00 0.05 0.05 90 1011.8
20260506084627 7 131 1.6 6.4 0.00 0.05 0.05 91 1011.6
20260506084124 7 127 4.8 4.8 0.00 0.05 0.05 92 1011.3
20260506083621 7 109 3.2 6.4 0.00 0.05 0.05 91 1011.4
20260506083119 7 68 4.8 14.5 0.00 0.05 0.05 91 1011.4
20260506082615 7 116 6.4 11.3 0.00 0.05 0.05 92 1011.2
20260506082111 7 110 1.6 6.4 0.00 0.05 0.05 92 1011.4
20260506081609 7 117 3.2 11.3 0.00 0.05 0.05 92 1011.2
20260506081106 7 141 4.8 6.4 0.18 0.05 0.05 93 1011.2
20260506080604 7 125 3.2 3.2 0.18 0.05 0.05 93 1011.4
20260506073044 7 187 3.2 6.4 0.00 0.03 0.03 92 1011.5
20260506072541 7 69 1.6 12.9 0.00 0.03 0.03 93 1011.3
20260506072039 7 29 4.8 11.3 0.00 0.03 0.03 94 1011.1
20260506071537 7 27 14.5 16.1 0.00 0.03 0.03 93 1011.5
20260506071033 7 55 1.6 6.4 0.00 0.03 0.03 93 1011.5
20260506070531 7 131 0.0 3.2 0.00 0.03 0.03 93 1011.1
20260506062508 7 201 1.6 3.2 0.00 0.00 0.00 94 1011.0
20260506062005 7 87 8.0 14.5 0.00 0.00 0.00 95 1011.4
20260506061501 7 106 6.4 12.9 0.00 0.00 0.00 95 1011.3
20260506060958 8 98 1.6 3.2 0.00 0.00 0.00 95 1011.3
20260506060457 8 73 1.6 1.6 0.00 0.00 0.00 95 1011.4
20260506050926 8 124 0.0 1.6 0.00 0.00 0.00 95 1010.7
20260506050423 8 121 6.4 6.4 0.00 0.00 0.00 94 1011.0
20260506044914 8 89 0.0 3.2 0.00 2.51 2.51 94 1011.2
20260506044412 8 94 3.2 6.4 0.00 2.51 2.51 94 1011.1
20260506043909 8 119 1.6 1.6 0.00 2.51 2.51 94 1011.0
20260506043406 8 61 6.4 6.4 0.00 2.51 2.51 94 1010.7